Time,TemperatureF,DewpointF,PressureIn,WindDirection,WindDirectionDegrees,WindSpeedMPH,WindSpeedGustMPH,Humidity,HourlyPrecipIn,Conditions,Clouds,dailyrainin,SoftwareType,DateUTC
2013-03-12 00:02:00,20.0,20.0,-100.00,WSW,240,4.0,6.0,100,0.00,,,-99.99,,2013-03-12 06:02:00,
2013-03-12 00:12:00,20.0,20.0,-100.00,West,270,3.0,5.0,100,0.00,,,-99.99,,2013-03-12 06:12:00,
2013-03-12 00:22:00,20.0,20.0,-100.00,West,268,5.0,7.0,100,0.00,,,-99.99,,2013-03-12 06:22:00,
2013-03-12 00:32:00,20.0,20.0,-100.00,SW,234,7.0,11.0,100,0.00,,,-99.99,,2013-03-12 06:32:00,
2013-03-12 00:42:00,20.0,20.0,-100.00,SW,232,9.0,12.0,100,0.00,,,-99.99,,2013-03-12 06:42:00,
2013-03-12 00:52:00,19.0,19.0,-100.00,SW,236,9.0,12.0,99,0.00,,,-99.99,,2013-03-12 06:52:00,
2013-03-12 01:02:00,20.0,20.0,-100.00,SW,229,11.0,12.0,100,0.00,,,-99.99,,2013-03-12 07:02:00,
2013-03-12 01:12:00,20.0,20.0,-100.00,SW,232,11.0,13.0,99,0.00,,,-99.99,,2013-03-12 07:12:00,
2013-03-12 01:22:00,19.0,19.0,-100.00,WSW,241,11.0,13.0,100,0.00,,,-99.99,,2013-03-12 07:22:00,
2013-03-12 01:32:00,17.0,16.0,-100.00,WSW,251,9.0,12.0,97,0.00,,,-99.99,,2013-03-12 07:32:00,
2013-03-12 01:42:00,18.0,18.0,-100.00,WSW,243,9.0,12.0,100,0.00,,,-99.99,,2013-03-12 07:42:00,
2013-03-12 01:52:00,19.0,18.0,-100.00,WSW,239,11.0,14.0,99,0.00,,,-99.99,,2013-03-12 07:52:00,
2013-03-12 02:02:00,18.0,18.0,-100.00,SW,236,11.0,12.0,98,0.00,,,-99.99,,2013-03-12 08:02:00,
2013-03-12 02:12:00,18.0,18.0,-100.00,WSW,241,11.0,13.0,99,0.00,,,-99.99,,2013-03-12 08:12:00,
2013-03-12 02:22:00,18.0,18.0,-100.00,WSW,237,11.0,12.0,99,0.00,,,-99.99,,2013-03-12 08:22:00,
2013-03-12 02:33:00,18.0,18.0,-100.00,WSW,240,11.0,12.0,98,0.00,,,-99.99,,2013-03-12 08:33:00,
2013-03-12 02:42:00,18.0,18.0,-100.00,WSW,237,10.0,12.0,99,0.00,,,-99.99,,2013-03-12 08:42:00,
2013-03-12 02:52:00,16.0,15.0,-100.00,WSW,253,9.0,11.0,97,0.00,,,-99.99,,2013-03-12 08:52:00,
2013-03-12 03:03:00,16.0,16.0,-100.00,WSW,254,7.0,9.0,99,0.00,,,-99.99,,2013-03-12 09:03:00,
2013-03-12 03:12:00,17.0,17.0,-100.00,WSW,250,7.0,9.0,99,0.00,,,-99.99,,2013-03-12 09:12:00,
2013-03-12 03:22:00,18.0,18.0,-100.00,WSW,258,8.0,9.0,99,0.00,,,-99.99,,2013-03-12 09:22:00,
2013-03-12 03:32:00,18.0,18.0,-100.00,WSW,243,8.0,10.0,100,0.00,,,-99.99,,2013-03-12 09:32:00,
2013-03-12 03:42:00,18.0,18.0,-100.00,WSW,250,8.0,10.0,100,0.00,,,-99.99,,2013-03-12 09:42:00,
2013-03-12 03:52:00,19.0,18.0,-100.00,WSW,248,7.0,11.0,100,0.00,,,-99.99,,2013-03-12 09:52:00,
2013-03-12 04:02:00,19.0,19.0,-100.00,WSW,256,9.0,12.0,100,0.00,,,-99.99,,2013-03-12 10:02:00,
2013-03-12 04:12:00,19.0,19.0,-100.00,WSW,257,8.0,10.0,100,0.00,,,-99.99,,2013-03-12 10:12:00,
2013-03-12 04:22:00,19.0,19.0,-100.00,WSW,246,7.0,10.0,99,0.00,,,-99.99,,2013-03-12 10:22:00,
2013-03-12 04:32:00,19.0,18.0,-100.00,SW,234,9.0,11.0,99,0.00,,,-99.99,,2013-03-12 10:32:00,
2013-03-12 04:42:00,18.0,18.0,-100.00,SW,236,9.0,12.0,99,0.00,,,-99.99,,2013-03-12 10:42:00,
2013-03-12 04:52:00,18.0,18.0,-100.00,WSW,237,9.0,12.0,99,0.00,,,-99.99,,2013-03-12 10:52:00,
2013-03-12 05:02:00,18.0,18.0,-100.00,WSW,240,9.0,12.0,99,0.00,,,-99.99,,2013-03-12 11:02:00,
2013-03-12 05:12:00,18.0,18.0,-100.00,WSW,243,9.0,12.0,99,0.00,,,-99.99,,2013-03-12 11:12:00,
2013-03-12 05:22:00,18.0,18.0,-100.00,WSW,256,11.0,14.0,99,0.00,,,-99.99,,2013-03-12 11:22:00,
2013-03-12 05:32:00,18.0,18.0,-100.00,WSW,258,11.0,13.0,99,0.00,,,-99.99,,2013-03-12 11:32:00,
2013-03-12 05:42:00,18.0,18.0,-100.00,West,260,10.0,12.0,99,0.00,,,-99.99,,2013-03-12 11:42:00,
2013-03-12 05:52:00,18.0,18.0,-100.00,West,265,10.0,12.0,99,0.00,,,-99.99,,2013-03-12 11:52:00,
2013-03-12 06:02:00,18.0,18.0,-100.00,West,267,9.0,11.0,99,0.00,,,-99.99,,2013-03-12 12:02:00,
2013-03-12 06:12:00,18.0,18.0,-100.00,West,270,9.0,11.0,99,0.00,,,-99.99,,2013-03-12 12:12:00,
2013-03-12 06:22:00,18.0,18.0,-100.00,West,264,9.0,12.0,99,0.00,,,-99.99,,2013-03-12 12:22:00,
2013-03-12 06:32:00,18.0,17.0,-100.00,West,264,9.0,11.0,99,0.00,,,-99.99,,2013-03-12 12:32:00,
2013-03-12 06:42:00,17.0,17.0,-100.00,West,260,9.0,11.0,99,0.00,,,-99.99,,2013-03-12 12:42:00,
2013-03-12 06:52:00,17.0,17.0,-100.00,WSW,257,9.0,10.0,99,0.00,,,-99.99,,2013-03-12 12:52:00,
2013-03-12 07:02:00,17.0,17.0,-100.00,WSW,258,9.0,11.0,99,0.00,,,-99.99,,2013-03-12 13:02:00,
2013-03-12 07:12:00,17.0,17.0,-100.00,West,260,9.0,11.0,99,0.00,,,-99.99,,2013-03-12 13:12:00,
2013-03-12 07:22:00,17.0,17.0,-100.00,West,261,7.0,9.0,99,0.00,,,-99.99,,2013-03-12 13:22:00,
2013-03-12 07:32:00,17.0,17.0,-100.00,West,264,6.0,9.0,99,0.00,,,-99.99,,2013-03-12 13:32:00,
2013-03-12 07:42:00,17.0,16.0,-100.00,West,264,6.0,7.0,99,0.00,,,-99.99,,2013-03-12 13:42:00,
2013-03-12 07:52:00,17.0,16.0,-100.00,WSW,254,6.0,9.0,99,0.00,,,-99.99,,2013-03-12 13:52:00,
2013-03-12 08:02:00,17.0,16.0,-100.00,WSW,254,5.0,6.0,99,0.00,,,-99.99,,2013-03-12 14:02:00,
2013-03-12 08:12:00,16.0,16.0,-100.00,WSW,253,4.0,6.0,98,0.00,,,-99.99,,2013-03-12 14:12:00,
2013-03-12 08:22:00,16.0,15.0,-100.00,West,263,4.0,6.0,98,0.00,,,-99.99,,2013-03-12 14:22:00,
2013-03-12 08:32:00,16.0,16.0,-100.00,West,272,4.0,6.0,99,0.00,,,-99.99,,2013-03-12 14:32:00,
2013-03-12 08:42:00,16.0,16.0,-100.00,West,260,4.0,6.0,98,0.00,,,-99.99,,2013-03-12 14:42:00,
2013-03-12 08:52:00,19.0,19.0,-100.00,WSW,256,6.0,11.0,100,0.00,,,-99.99,,2013-03-12 14:52:00,
2013-03-12 09:02:00,21.0,21.0,-100.00,WSW,243,13.0,17.0,100,0.00,,,-99.99,,2013-03-12 15:02:00,
2013-03-12 09:12:00,21.0,21.0,-100.00,SW,236,14.0,17.0,100,0.00,,,-99.99,,2013-03-12 15:12:00,
2013-03-12 09:22:00,22.0,22.0,-100.00,SW,233,17.0,24.0,99,0.01,,,-99.99,,2013-03-12 15:22:00,
2013-03-12 09:32:00,23.0,22.0,-100.00,SW,236,18.0,24.0,96,0.00,,,-99.99,,2013-03-12 15:32:00,
2013-03-12 09:42:00,24.0,22.0,-100.00,SW,234,17.0,24.0,96,0.00,,,-99.99,,2013-03-12 15:42:00,
2013-03-12 09:52:00,24.0,23.0,-100.00,SW,234,16.0,21.0,96,0.00,,,-99.99,,2013-03-12 15:52:00,
2013-03-12 10:02:00,24.0,23.0,-100.00,WSW,237,17.0,22.0,94,0.00,,,-99.99,,2013-03-12 16:02:00,
2013-03-12 10:12:00,25.0,23.0,-100.00,WSW,237,19.0,24.0,92,0.01,,,-99.99,,2013-03-12 16:12:00,
2013-03-12 10:22:00,25.0,23.0,-100.00,SW,233,21.0,27.0,90,0.00,,,-99.99,,2013-03-12 16:22:00,
2013-03-12 10:33:00,26.0,23.0,-100.00,SW,232,21.0,27.0,88,0.00,,,-99.99,,2013-03-12 16:33:00,
2013-03-12 10:42:00,26.0,22.0,-100.00,SW,234,21.0,30.0,83,0.01,,,-99.99,,2013-03-12 16:42:00,
2013-03-12 10:52:00,27.0,22.0,-100.00,SW,234,22.0,28.0,81,0.00,,,-99.99,,2013-03-12 16:52:00,
2013-03-12 11:02:00,27.0,22.0,-100.00,SW,234,22.0,30.0,80,0.00,,,-99.99,,2013-03-12 17:02:00,
2013-03-12 11:12:00,27.0,22.0,-100.00,SW,236,22.0,30.0,80,0.00,,,-99.99,,2013-03-12 17:12:00,
2013-03-12 11:22:00,28.0,23.0,-100.00,WSW,239,24.0,29.0,81,0.00,,,-99.99,,2013-03-12 17:22:00,
2013-03-12 11:33:00,28.0,23.0,-100.00,WSW,240,24.0,30.0,81,0.00,,,-99.99,,2013-03-12 17:33:00,
2013-03-12 11:43:00,29.0,24.0,-100.00,WSW,240,24.0,34.0,81,0.00,,,-99.99,,2013-03-12 17:43:00,
2013-03-12 11:53:00,28.0,24.0,-100.00,WSW,240,24.0,29.0,82,0.00,,,-99.99,,2013-03-12 17:53:00,
2013-03-12 12:02:00,28.0,24.0,-100.00,WSW,240,24.0,31.0,81,0.00,,,-99.99,,2013-03-12 18:02:00,
2013-03-12 12:12:00,29.0,24.0,-100.00,WSW,239,26.0,30.0,83,0.00,,,-99.99,,2013-03-12 18:12:00,
2013-03-12 12:22:00,29.0,25.0,-100.00,WSW,243,22.0,28.0,86,0.00,,,-99.99,,2013-03-12 18:22:00,
2013-03-12 12:33:00,29.0,25.0,-100.00,WSW,243,21.0,27.0,82,0.00,,,-99.99,,2013-03-12 18:33:00,
2013-03-12 12:42:00,30.0,25.0,-100.00,WSW,240,23.0,34.0,82,0.00,,,-99.99,,2013-03-12 18:42:00,
2013-03-12 12:53:00,30.0,25.0,-100.00,WSW,246,24.0,32.0,79,0.00,,,-99.99,,2013-03-12 18:53:00,
2013-03-12 13:03:00,30.0,25.0,-100.00,WSW,244,26.0,35.0,82,0.00,,,-99.99,,2013-03-12 19:03:00,
2013-03-12 13:13:00,30.0,26.0,-100.00,WSW,241,27.0,35.0,85,0.00,,,-99.99,,2013-03-12 19:13:00,
2013-03-12 13:22:00,31.0,26.0,-100.00,WSW,239,27.0,36.0,84,0.00,,,-99.99,,2013-03-12 19:22:00,
2013-03-12 13:33:00,31.0,26.0,-100.00,SW,234,27.0,35.0,84,0.00,,,-99.99,,2013-03-12 19:33:00,
2013-03-12 13:43:00,30.0,27.0,-100.00,WSW,237,29.0,35.0,90,0.00,,,-99.99,,2013-03-12 19:43:00,
2013-03-12 13:53:00,31.0,26.0,-100.00,WSW,239,29.0,35.0,84,0.00,,,-99.99,,2013-03-12 19:53:00,
2013-03-12 14:02:00,30.0,28.0,-100.00,SW,233,30.0,37.0,90,0.00,,,-99.99,,2013-03-12 20:02:00,
2013-03-12 14:12:00,31.0,27.0,-100.00,SW,233,31.0,37.0,83,0.00,,,-99.99,,2013-03-12 20:12:00,
2013-03-12 14:22:00,32.0,27.0,-100.00,WSW,237,27.0,34.0,81,0.00,,,-99.99,,2013-03-12 20:22:00,
2013-03-12 14:32:00,32.0,27.0,-100.00,SW,234,30.0,37.0,82,0.00,,,-99.99,,2013-03-12 20:32:00,
2013-03-12 14:42:00,32.0,26.0,-100.00,SW,236,30.0,37.0,81,0.00,,,-99.99,,2013-03-12 20:42:00,
2013-03-12 14:52:00,32.0,26.0,-100.00,SW,234,27.0,35.0,78,0.00,,,-99.99,,2013-03-12 20:52:00,
2013-03-12 15:02:00,32.0,27.0,-100.00,SW,230,26.0,34.0,81,0.00,,,-99.99,,2013-03-12 21:02:00,
2013-03-12 15:12:00,33.0,27.0,-100.00,SW,229,28.0,35.0,80,0.00,,,-99.99,,2013-03-12 21:12:00,
2013-03-12 15:22:00,33.0,27.0,-100.00,SW,227,27.0,37.0,78,0.00,,,-99.99,,2013-03-12 21:22:00,
2013-03-12 15:32:00,33.0,26.0,-100.00,SW,226,26.0,33.0,75,0.00,,,-99.99,,2013-03-12 21:32:00,
2013-03-12 15:43:00,34.0,26.0,-100.00,SW,234,27.0,34.0,75,0.00,,,-99.99,,2013-03-12 21:43:00,
2013-03-12 15:52:00,34.0,27.0,-100.00,SW,230,27.0,37.0,75,0.00,,,-99.99,,2013-03-12 21:52:00,
2013-03-12 16:02:00,34.0,27.0,-100.00,SW,227,28.0,37.0,75,0.00,,,-99.99,,2013-03-12 22:02:00,
2013-03-12 16:12:00,34.0,26.0,-100.00,SW,230,29.0,37.0,73,0.00,,,-99.99,,2013-03-12 22:12:00,
2013-03-12 16:22:00,34.0,27.0,-100.00,SW,229,27.0,35.0,75,0.00,,,-99.99,,2013-03-12 22:22:00,
2013-03-12 16:33:00,34.0,27.0,-100.00,SW,232,26.0,34.0,75,0.00,,,-99.99,,2013-03-12 22:33:00,
2013-03-12 16:42:00,34.0,26.0,-100.00,SW,230,26.0,34.0,72,0.00,,,-99.99,,2013-03-12 22:42:00,
2013-03-12 16:52:00,34.0,26.0,-100.00,SW,230,27.0,37.0,72,0.00,,,-99.99,,2013-03-12 22:52:00,
2013-03-12 17:02:00,34.0,27.0,-100.00,SW,232,29.0,35.0,73,0.00,,,-99.99,,2013-03-12 23:02:00,
2013-03-12 17:12:00,34.0,26.0,-100.00,SW,232,29.0,37.0,72,0.00,,,-99.99,,2013-03-12 23:12:00,
2013-03-12 17:22:00,35.0,27.0,-100.00,SW,230,31.0,37.0,71,0.00,,,-99.99,,2013-03-12 23:22:00,
2013-03-12 17:34:00,35.0,27.0,-100.00,SW,230,30.0,39.0,73,0.00,,,-99.99,,2013-03-12 23:34:00,
2013-03-12 17:43:00,35.0,27.0,-100.00,SW,229,32.0,40.0,71,0.00,,,-99.99,,2013-03-12 23:43:00,
2013-03-12 17:52:00,35.0,27.0,-100.00,SW,224,31.0,40.0,74,0.00,,,-99.99,,2013-03-12 23:52:00,
2013-03-12 18:02:00,35.0,27.0,-100.00,SW,226,29.0,37.0,73,0.00,,,-99.99,,2013-03-13 00:02:00,
2013-03-12 18:12:00,35.0,27.0,-100.00,SW,227,29.0,37.0,72,0.00,,,-99.99,,2013-03-13 00:12:00,
2013-03-12 18:22:00,35.0,27.0,-100.00,SW,230,27.0,34.0,71,0.00,,,-99.99,,2013-03-13 00:22:00,
2013-03-12 18:33:00,36.0,26.0,-100.00,SW,232,29.0,37.0,68,0.00,,,-99.99,,2013-03-13 00:33:00,
2013-03-12 18:42:00,36.0,26.0,-100.00,SW,234,30.0,39.0,68,0.00,,,-99.99,,2013-03-13 00:42:00,
2013-03-12 18:52:00,35.0,27.0,-100.00,SW,229,29.0,35.0,73,0.00,,,-99.99,,2013-03-13 00:52:00,
2013-03-12 19:02:00,35.0,27.0,-100.00,SW,227,30.0,37.0,73,0.00,,,-99.99,,2013-03-13 01:02:00,
2013-03-12 19:12:00,35.0,27.0,-100.00,SW,236,30.0,38.0,72,0.00,,,-99.99,,2013-03-13 01:12:00,
2013-03-12 19:22:00,35.0,27.0,-100.00,WSW,237,27.0,36.0,74,0.00,,,-99.99,,2013-03-13 01:22:00,
2013-03-12 19:32:00,35.0,27.0,-100.00,WSW,240,26.0,30.0,72,0.00,,,-99.99,,2013-03-13 01:32:00,
2013-03-12 19:42:00,35.0,27.0,-100.00,WSW,246,27.0,37.0,72,0.00,,,-99.99,,2013-03-13 01:42:00,
2013-03-12 19:52:00,35.0,27.0,-100.00,WSW,244,27.0,37.0,74,0.00,,,-99.99,,2013-03-13 01:52:00,
2013-03-12 20:02:00,35.0,27.0,-100.00,WSW,244,26.0,35.0,74,0.00,,,-99.99,,2013-03-13 02:02:00,
2013-03-12 20:12:00,34.0,27.0,-100.00,WSW,243,26.0,35.0,75,0.00,,,-99.99,,2013-03-13 02:12:00,
2013-03-12 20:22:00,34.0,27.0,-100.00,SW,233,24.0,34.0,75,0.00,,,-99.99,,2013-03-13 02:22:00,
2013-03-12 20:32:00,35.0,26.0,-100.00,SW,233,27.0,39.0,70,0.00,,,-99.99,,2013-03-13 02:32:00,
2013-03-12 20:42:00,35.0,26.0,-100.00,WSW,237,28.0,35.0,70,0.00,,,-99.99,,2013-03-13 02:42:00,
2013-03-12 20:52:00,34.0,26.0,-100.00,WSW,237,26.0,35.0,71,0.00,,,-99.99,,2013-03-13 02:52:00,
2013-03-12 21:02:00,35.0,26.0,-100.00,SW,232,28.0,41.0,70,0.00,,,-99.99,,2013-03-13 03:02:00,
2013-03-12 21:12:00,34.0,27.0,-100.00,SW,229,29.0,41.0,73,0.00,,,-99.99,,2013-03-13 03:12:00,
2013-03-12 21:22:00,34.0,27.0,-100.00,SW,227,32.0,40.0,75,0.00,,,-99.99,,2013-03-13 03:22:00,
2013-03-12 21:32:00,34.0,28.0,-100.00,SW,226,33.0,43.0,79,0.00,,,-99.99,,2013-03-13 03:32:00,
2013-03-12 21:42:00,34.0,27.0,-100.00,SW,226,30.0,39.0,76,0.00,,,-99.99,,2013-03-13 03:42:00,
2013-03-12 21:52:00,34.0,27.0,-100.00,SW,229,27.0,35.0,75,0.00,,,-99.99,,2013-03-13 03:52:00,
2013-03-12 22:02:00,34.0,27.0,-100.00,SW,233,26.0,34.0,73,0.00,,,-99.99,,2013-03-13 04:02:00,
2013-03-12 22:13:00,34.0,27.0,-100.00,SW,236,26.0,35.0,75,0.00,,,-99.99,,2013-03-13 04:13:00,
2013-03-12 22:22:00,34.0,27.0,-100.00,WSW,239,26.0,34.0,75,0.00,,,-99.99,,2013-03-13 04:22:00,
2013-03-12 22:32:00,34.0,27.0,-100.00,WSW,241,25.0,34.0,74,0.00,,,-99.99,,2013-03-13 04:32:00,
2013-03-12 22:42:00,34.0,27.0,-100.00,WSW,241,24.0,34.0,74,0.00,,,-99.99,,2013-03-13 04:42:00,
2013-03-12 22:52:00,35.0,26.0,-100.00,SW,234,25.0,32.0,69,0.00,,,-99.99,,2013-03-13 04:52:00,
2013-03-12 23:02:00,35.0,26.0,-100.00,WSW,237,27.0,34.0,69,0.00,,,-99.99,,2013-03-13 05:02:00,
2013-03-12 23:12:00,35.0,26.0,-100.00,SW,236,27.0,34.0,70,0.00,,,-99.99,,2013-03-13 05:12:00,
2013-03-12 23:22:00,35.0,26.0,-100.00,SW,236,27.0,34.0,71,0.00,,,-99.99,,2013-03-13 05:22:00,
2013-03-12 23:32:00,35.0,26.0,-100.00,SW,234,30.0,40.0,70,0.00,,,-99.99,,2013-03-13 05:32:00,
2013-03-12 23:42:00,35.0,27.0,-100.00,SW,233,31.0,42.0,72,0.00,,,-99.99,,2013-03-13 05:42:00,
2013-03-12 23:52:00,35.0,27.0,-100.00,SW,233,29.0,37.0,72,0.00,,,-99.99,,2013-03-13 05:52:00,